RH
99 99 74 51 40 35 31 38 60 46 36 40 39 41 36 36 39 36 26 16 11 6 7 8 7 6 5 5 4 3 4 4 5 5 5 6 6 6 6 7 7 8 14 22
100 96 76 44 39 34 32 44 60 41 36 40 41 40 37 38 41 39 30 18 14 6 7 8 8 7 5 5 4 3 3 4 5 5 5 5 5 5 6 6 7 7 8 17
100 93 74 41 37 33 35 50 59 36 35 43 44 44 41 41 44 41 33 21 18 9 7 9 8 8 6 5 4 4 3 4 4 5 4 4 4 5 5 6 7 7 7 10
100 90 63 38 35 32 38 56 55 36 36 43 47 49 44 42 47 44 34 25 20 14 7 8 9 8 8 5 5 4 4 4 4 5 4 4 4 4 5 6 6 7 7 8
95 82 53 38 34 33 38 65 52 37 38 45 50 50 49 44 44 46 37 31 20 17 8 8 9 8 8 8 5 4 4 3 4 4 4 3 3 3 4 5 6 6 7 7
87 78 43 35 30 34 47 65 52 40 38 48 51 48 46 45 43 49 41 35 24 21 12 8 9 9 8 8 6 5 4 4 4 4 5 4 3 3 3 5 6 6 7 7
84 58 38 32 32 34 59 60 48 43 42 49 49 48 47 45 43 51 44 38 30 20 18 8 8 9 8 8 7 6 5 4 4 4 4 5 3 3 3 3 5 6 7 7
78 48 37 31 33 40 64 62 47 46 48 50 51 51 50 44 45 50 49 42 33 22 21 11 8 9 9 8 8 6 6 5 4 4 4 4 5 3 3 3 4 6 7 7
80 48 33 36 33 53 58 64 47 48 50 49 51 50 54 52 50 50 55 46 35 27 23 15 8 9 9 8 8 6 5 5 4 4 4 4 5 4 3 3 3 4 6 8
77 45 39 39 35 58 61 66 49 50 47 49 55 51 54 52 50 54 55 50 44 33 26 21 10 8 10 9 8 7 6 5 5 4 5 4 4 5 4 3 3 4 4 6
70 56 42 35 45 61 67 65 52 54 46 52 57 55 52 52 50 52 52 55 50 35 28 21 14 8 9 10 9 8 6 5 5 5 4 5 4 4 5 4 3 3 4 5
58 52 53 36 58 65 69 62 57 57 48 56 59 56 50 53 51 51 50 53 52 42 30 23 17 9 9 10 9 9 6 5 4 5 5 4 6 4 4 5 4 3 3 4
60 55 48 51 64 66 68 64 61 58 51 59 61 57 51 55 50 52 49 54 49 50 34 26 24 15 10 10 10 9 7 6 4 5 6 4 4 6 4 4 5 3 3 3
64 56 49 67 65 68 68 68 66 57 53 63 66 56 51 56 49 49 50 55 51 55 38 32 27 21 11 10 10 9 9 7 5 5 7 7 4 5 7 4 4 5 4 3
53 60 62 65 70 68 75 75 69 56 60 70 64 54 52 55 53 48 49 56 54 56 44 38 34 26 13 9 11 10 10 8 6 5 7 7 6 4 6 7 5 4 5 4
53 53 72 75 72 74 80 81 68 60 66 70 62 56 51 55 54 53 51 56 58 58 52 47 42 28 18 11 10 11 10 10 8 6 6 7 6 5 5 6 7 5 5 6
45 65 74 78 77 80 89 80 59 69 71 66 58 56 50 55 56 64 57 55 62 59 60 53 43 29 24 12 9 11 10 11 9 7 6 7 6 5 5 6 7 8 6 5
51 70 76 83 81 84 85 73 69 81 73 58 54 58 52 52 50 68 62 56 62 64 65 54 43 34 26 13 10 11 11 10 10 9 6 7 7 5 5 6 8 9 9 8
72 76 85 79 84 90 79 73 86 86 75 55 52 56 52 49 48 62 61 57 61 63 65 58 47 38 28 20 10 10 12 11 11 10 8 6 8 8 5 6 8 11 12 10
82 88 89 81 95 88 79 72 82 81 69 50 52 61 52 50 50 58 59 58 59 63 60 63 48 39 28 18 11 10 12 11 11 10 8 7 7 8 8 6 7 10 11 13
90 88 90 93 90 84 72 70 68 72 64 48 56 61 51 55 57 71 69 58 63 65 59 51 50 39 30 19 17 10 11 11 10 11 9 8 7 8 9 7 6 8 10 11
97 91 95 94 87 81 62 63 71 65 65 49 58 59 52 54 59 75 67 62 63 58 55 48 45 39 31 18 16 9 10 11 10 11 10 9 8 8 9 8 6 6 7 10
94 92 96 92 88 77 57 61 76 72 67 49 56 59 63 57 58 72 64 60 60 56 52 48 42 36 33 22 16 10 11 11 10 11 11 9 8 8 9 8 6 6 7 8
89 98 98 89 82 72 65 72 86 77 68 50 56 60 68 59 63 69 54 57 56 54 54 50 44 37 34 23 18 11 11 11 11 11 11 9 8 7 9 7 5 5 7 8
99 100 96 87 78 81 75 79 88 86 65 50 55 65 70 68 68 67 61 57 56 59 60 53 44 41 34 26 20 12 10 12 11 10 10 9 8 7 8 6 5 5 6 7
99 99 99 95 87 80 83 88 97 85 61 50 56 69 66 71 69 66 68 63 51 60 58 54 47 46 35 31 21 12 10 12 11 10 10 8 7 7 8 5 4 5 6 7
100 100 100 82 80 88 93 96 98 81 61 60 65 70 66 75 73 70 73 58 55 55 53 54 46 48 35 30 23 11 10 11 11 10 10 8 7 6 8 5 4 5 6 7
Wind_Speed
53 57 57 54 57 62 70 77 82 88 92 96 101 105 108 108 110 113 109 100 92 81 71 62 58 54 43 35 26 19 19 19 27 35 41 51 61 66 75 86 100 111 122 133
54 55 57 52 57 62 70 76 82 86 90 95 101 106 107 109 109 113 110 102 94 86 74 63 60 56 48 38 28 21 17 17 21 31 37 46 57 66 71 79 90 101 113 123
53 53 56 52 57 62 68 73 80 83 89 93 100 106 109 110 108 112 109 104 95 89 79 68 61 58 51 41 31 24 18 15 19 24 32 40 50 58 69 74 83 92 102 112
51 51 53 51 56 62 66 72 80 83 88 91 98 105 109 112 108 112 109 106 98 91 82 71 64 59 54 46 35 27 20 16 16 20 26 34 43 52 61 71 77 86 93 104
48 51 47 51 56 61 65 71 78 82 88 90 96 104 108 112 108 112 110 108 100 93 86 73 65 61 57 51 40 30 23 16 15 17 21 28 36 46 55 65 74 81 89 99
46 51 45 50 56 59 64 71 76 82 87 89 95 102 107 110 111 113 111 108 104 96 90 78 67 61 58 52 45 35 26 18 13 15 19 23 30 39 50 59 68 77 84 91
43 45 44 50 55 57 63 70 74 81 86 89 94 100 106 108 113 113 112 109 107 95 90 82 71 63 58 55 49 41 32 21 15 13 15 19 25 33 43 54 61 70 80 87
44 41 45 50 52 56 62 69 73 80 85 88 95 100 107 109 112 113 112 108 106 97 91 85 76 69 63 58 52 45 36 28 19 12 13 16 21 29 37 46 55 65 75 83
46 40 45 49 49 55 62 68 73 79 83 87 93 99 106 108 111 113 112 112 107 102 94 88 80 71 63 61 58 50 40 32 24 16 11 13 18 24 32 40 50 60 69 77
43 40 45 44 47 53 61 67 72 78 82 86 92 97 104 108 110 113 111 114 112 107 97 91 85 75 66 64 61 56 46 35 27 20 14 10 15 21 27 36 43 53 65 72
37 41 45 41 46 53 60 67 72 78 82 86 91 97 102 108 109 113 109 112 111 109 101 93 88 79 70 65 63 59 50 39 31 24 17 11 10 17 23 30 38 46 55 65
38 41 38 41 46 53 60 65 71 78 82 86 90 97 102 106 108 112 111 111 113 110 103 95 92 87 76 67 64 61 54 44 35 27 21 14 10 11 19 26 32 40 48 57
39 40 35 40 46 53 59 64 71 77 82 85 89 96 101 104 108 111 114 111 113 112 108 97 96 90 82 71 66 62 57 48 39 31 24 18 12 10 12 20 27 33 41 49
40 35 35 39 46 53 59 64 72 77 82 85 89 95 99 102 109 112 112 113 113 114 109 102 99 93 86 75 67 62 60 51 43 35 27 21 16 11 10 14 21 28 35 42
37 30 35 40 47 54 59 65 72 76 81 85 90 95 97 103 109 113 112 112 114 114 111 107 103 96 90 78 68 64 62 55 46 38 31 24 18 15 11 11 15 22 29 36
29 30 33 40 48 54 60 67 71 75 80 84 89 94 96 103 109 112 114 111 116 117 113 111 104 98 91 83 72 64 63 58 49 39 34 28 21 16 15 12 13 16 23 31
28 27 33 41 48 53 60 65 69 75 78 82 88 92 98 102 107 111 116 111 116 118 116 114 105 98 95 85 75 67 63 60 54 45 36 31 26 19 15 14 13 14 18 24
23 27 35 42 48 54 60 64 70 75 78 82 87 92 98 101 108 110 115 114 114 117 117 114 107 99 96 88 79 68 65 62 57 52 40 34 28 24 18 13 14 15 16 19
25 31 37 43 49 55 59 64 70 74 77 82 88 93 97 101 108 110 114 114 113 115 115 113 109 100 97 89 82 72 66 64 60 55 46 37 31 27 22 18 13 14 16 18
28 33 39 45 50 55 59 64 67 71 75 82 87 93 99 102 108 111 115 114 113 114 115 113 110 102 96 89 87 73 68 63 61 59 50 43 35 30 25 22 19 16 15 17
29 34 40 45 50 54 59 64 67 71 75 82 88 94 99 102 109 112 117 117 113 113 115 113 109 103 97 89 89 76 69 64 63 62 56 47 40 34 30 25 21 20 19 19
30 34 40 46 51 54 61 65 69 73 77 84 88 93 100 104 108 110 114 118 114 116 116 116 110 105 98 92 90 79 73 67 66 64 59 52 44 38 34 30 25 21 22 23
31 36 41 46 51 58 63 66 71 77 80 84 88 93 100 106 109 111 115 118 117 115 117 118 113 107 102 97 92 85 76 68 68 66 62 55 48 42 37 33 28 26 26 26
32 37 43 49 56 59 64 68 72 77 80 84 89 95 101 107 111 113 119 119 117 117 120 122 116 109 106 98 94 88 79 71 71 67 65 59 50 45 41 35 30 28 27 28
33 38 45 52 57 60 64 68 72 78 80 84 89 94 99 105 110 116 122 125 122 120 123 123 119 113 107 100 96 89 81 74 72 69 66 59 52 47 43 38 34 30 27 26
34 43 48 52 57 61 65 70 73 78 81 86 89 95 99 104 111 118 122 125 122 121 125 127 120 115 108 104 98 91 83 75 73 70 68 61 54 48 44 39 36 32 29 28
36 43 48 53 59 62 67 71 75 79 83 88 92 96 102 107 113 119 122 125 122 123 125 126 119 115 109 105 100 92 85 75 73 71 68 62 55 50 46 41 37 33 31 29
Wind_Direction
323 324 325 326 328 332 336 340 340 343 347 350 353 353 354 356 357 357 358 357 357 358 357 356 355 355 352 346 336 319 294 256 236 232 226 224 224 221 218 215 215 214 214 213
321 323 324 325 327 333 337 340 340 343 348 353 354 354 356 358 359 359 359 359 359 359 360 358 358 359 355 351 344 330 309 273 241 235 231 226 223 222 219 217 215 214 215 212
320 321 322 325 327 333 338 339 340 344 349 354 355 356 358 359 0 1 0 1 1 2 1 360 0 359 358 355 350 340 326 292 257 242 235 226 223 220 219 216 216 215 214 211
318 319 322 323 327 334 339 338 340 345 351 355 356 357 359 0 1 1 1 2 3 3 3 2 1 2 0 358 354 348 336 312 277 253 239 230 224 221 219 217 215 215 214 212
317 318 321 322 327 336 338 337 342 347 351 355 356 358 358 1 2 3 3 4 4 3 4 4 2 2 2 1 357 353 343 328 295 265 249 234 225 223 219 218 215 215 215 212
316 319 318 322 329 337 337 338 343 348 351 354 355 358 358 1 3 4 4 5 5 4 4 4 3 3 3 2 1 356 351 335 310 279 253 243 228 221 221 219 217 214 216 214
314 316 319 323 331 337 338 339 345 349 352 354 355 358 359 1 4 5 5 6 6 5 5 4 3 2 3 2 2 0 353 349 330 298 263 244 235 224 220 220 218 215 216 216
313 315 319 325 331 337 338 340 345 350 352 354 356 358 359 2 3 6 6 7 6 6 6 5 5 3 2 3 3 1 358 350 343 319 282 252 237 227 222 220 219 216 216 216
313 317 321 326 333 338 339 341 346 351 352 354 356 358 0 2 3 5 5 7 6 6 6 6 7 5 3 3 3 2 0 355 348 335 308 269 246 231 225 220 219 217 217 215
314 318 321 325 333 337 339 341 346 351 352 354 356 357 0 1 3 4 6 7 7 6 7 7 7 5 4 4 2 3 0 359 353 345 326 293 259 242 229 224 220 218 219 217
312 318 322 326 333 335 339 341 346 350 352 354 356 356 359 360 3 4 6 7 7 6 8 7 8 6 5 4 3 3 1 359 358 350 340 314 279 253 241 229 225 220 221 220
312 320 321 328 333 335 338 342 346 349 352 355 356 355 358 359 2 4 6 6 7 6 7 7 8 8 5 5 4 2 2 0 358 354 346 329 300 267 248 240 230 223 222 221
316 321 323 330 332 335 339 343 346 348 352 355 355 355 357 359 1 3 5 6 8 7 7 7 8 7 6 4 3 2 3 0 357 356 350 339 317 286 258 244 238 232 223 222
316 321 325 330 332 335 340 344 347 349 352 354 355 355 357 359 0 3 3 5 7 6 6 7 7 7 7 4 3 3 3 1 357 356 353 344 330 302 273 250 241 236 233 226
318 321 326 330 333 336 341 345 347 350 353 355 355 356 357 359 360 2 3 4 6 7 7 7 6 6 6 6 3 4 3 2 359 355 353 350 338 320 293 267 245 237 236 233
317 322 325 331 334 338 342 345 347 352 354 355 355 356 357 359 359 1 3 4 6 6 6 6 5 5 4 5 4 5 3 2 359 357 353 349 343 330 309 286 260 243 235 234
315 323 328 332 335 339 343 345 347 352 352 354 354 355 358 359 360 1 3 4 5 5 5 4 5 4 4 3 3 4 3 3 0 1 357 352 345 336 320 301 280 257 245 235
321 325 332 333 338 341 344 344 348 351 351 352 353 355 358 360 359 1 1 3 4 4 4 3 4 4 4 3 3 3 1 3 3 0 359 356 351 341 331 314 296 280 260 247
321 331 332 334 339 340 343 345 349 349 350 351 352 354 357 359 359 1 1 2 3 3 2 1 3 3 5 1 2 2 1 1 1 1 358 356 353 348 337 325 309 292 276 263
322 328 332 336 338 339 340 345 348 347 348 350 352 353 355 358 358 1 1 1 2 2 2 360 2 3 3 2 2 2 359 360 360 359 359 356 353 349 343 331 316 303 288 271
317 326 332 335 334 338 340 344 344 345 347 349 352 353 356 357 358 359 360 0 0 0 0 360 2 1 3 2 2 1 357 359 359 359 357 354 351 348 344 337 321 305 293 283
317 326 331 330 333 335 338 341 343 344 346 349 352 353 356 356 357 358 359 358 358 359 0 359 1 0 1 2 2 360 359 357 357 358 357 353 351 347 342 336 327 311 296 287
316 326 327 329 331 333 335 340 343 344 346 348 350 353 354 356 355 356 357 357 357 359 359 357 360 0 0 360 2 359 359 356 356 356 354 353 350 346 342 337 328 317 305 295
319 324 325 327 327 331 336 341 343 343 345 346 349 352 353 354 356 355 357 356 356 357 359 357 359 358 360 359 1 358 359 356 354 355 353 352 349 345 341 337 327 319 310 299
321 323 323 323 328 333 336 340 342 342 342 345 349 350 353 351 355 354 357 355 357 355 358 356 358 356 358 357 358 358 357 355 353 353 352 350 347 345 341 336 330 324 315 304
320 322 324 327 327 331 337 339 342 340 340 343 348 348 351 349 352 352 355 353 356 353 355 355 356 355 356 355 356 357 355 354 352 352 350 349 347 344 341 337 332 326 319 311
316 320 322 323 326 333 337 338 339 338 339 342 346 347 348 348 350 350 353 351 354 353 354 354 356 352 354 354 353 355 353 353 351 350 350 348 346 344 342 339 334 329 323 318